When you browse on this site, cookies collect data to enhance your experience and personalize the content and advertising you see.
Visit our Privacy Policy to learn more. By continuing to use the site, you agree to this use of cookies and data.
  • In Slovakia
  • List of Countries
  • For 7 days
  • Water Temperature
  • Weather Map
  • Weather Widgets
  • user-avatar
    Login

    Hourly Weather Ordino

    Today, 23 February, Sunday

    Time Temperature Precipitation Wind Pressure Humidity
    00:00 +6°C° 0 mm 1 mps 642 mmHg 38%
    01:00 +6°C° 0 mm 1 mps 642 mmHg 37%
    02:00 +6°C° 0 mm 1 mps 641 mmHg 36%
    03:00 +6°C° 0 mm 1 mps 641 mmHg 35%
    04:00 +6°C° 0 mm 1 mps 641 mmHg 35%
    05:00 +6°C° 0 mm 1 mps 641 mmHg 35%
    06:00 +6°C° 0 mm 1 mps 641 mmHg 35%
    07:00 +8°C° 0 mm 1 mps 642 mmHg 36%
    08:00 +10°C° 0 mm 1 mps 643 mmHg 36%
    09:00 +11°C° 0 mm 0 mps 644 mmHg 36%
    10:00 +12°C° 0 mm 0 mps 644 mmHg 34%
    11:00 +15°C° 0 mm 1 mps 645 mmHg 31%
    12:00 +18°C° 0 mm 1 mps 645 mmHg 28%
    13:00 +16°C° 0 mm 1 mps 644 mmHg 31%
    14:00 +16°C° 0 mm 1 mps 644 mmHg 34%
    15:00 +15°C° 0 mm 1 mps 643 mmHg 37%
    16:00 +13°C° 0 mm 1 mps 642 mmHg 45%
    17:00 +10°C° 0 mm 1 mps 641 mmHg 53%
    18:00 +8°C° 0 mm 1 mps 641 mmHg 62%
    19:00 +7°C° 0 mm 1 mps 641 mmHg 53%
    20:00 +7°C° 0 mm 1 mps 640 mmHg 44%
    21:00 +6°C° 0 mm 2 mps 640 mmHg 35%
    22:00 +5°C° 0 mm 2 mps 640 mmHg 32%
    23:00 +6°C° 0 mm 1 mps 640 mmHg 29%

    Tomorrow, 24 February, Monday

    Time Temperature Precipitation Wind Pressure Humidity
    00:00 +6°C° 0 mm 1 mps 640 mmHg 26%
    01:00 +6°C° 0 mm 1 mps 640 mmHg 25%
    02:00 +6°C° 0 mm 1 mps 639 mmHg 25%
    03:00 +6°C° 0 mm 1 mps 639 mmHg 24%
    04:00 +6°C° 0 mm 1 mps 638 mmHg 24%
    05:00 +6°C° 0 mm 1 mps 638 mmHg 25%
    06:00 +6°C° 0 mm 1 mps 638 mmHg 25%
    07:00 +8°C° 0 mm 1 mps 639 mmHg 26%
    08:00 +9°C° 0 mm 0 mps 639 mmHg 28%
    09:00 +11°C° 0 mm 0 mps 640 mmHg 29%
    10:00 +12°C° 0 mm 0 mps 640 mmHg 27%
    11:00 +15°C° 0 mm 1 mps 640 mmHg 25%
    12:00 +16°C° 0 mm 1 mps 640 mmHg 24%
    13:00 +16°C° 0 mm 1 mps 639 mmHg 26%
    14:00 +16°C° 0 mm 1 mps 639 mmHg 29%
    15:00 +16°C° 0 mm 1 mps 638 mmHg 31%
    16:00 +13°C° 0 mm 1 mps 637 mmHg 41%
    17:00 +10°C° 0 mm 1 mps 636 mmHg 50%
    18:00 +7°C° 0 mm 1 mps 635 mmHg 60%
    19:00 +7°C° 0 mm 1 mps 635 mmHg 54%
    20:00 +6°C° 0 mm 1 mps 634 mmHg 49%
    21:00 +5°C° 0 mm 2 mps 634 mmHg 44%
    22:00 +4°C° 0 mm 2 mps 634 mmHg 42%
    23:00 +4°C° 0 mm 2 mps 634 mmHg 40%

    Day after tomorrow, 25 February, Tuesday

    Time Temperature Precipitation Wind Pressure Humidity
    00:00 +4°C° 0 mm 2 mps 633 mmHg 37%
    01:00 +4°C° 0 mm 2 mps 633 mmHg 37%
    02:00 +3°C° 0 mm 2 mps 632 mmHg 37%
    03:00 +4°C° 0 mm 1 mps 632 mmHg 37%
    04:00 +4°C° 0 mm 1 mps 632 mmHg 37%
    05:00 +4°C° 0 mm 1 mps 632 mmHg 38%
    06:00 +3°C° 0 mm 1 mps 632 mmHg 38%
    07:00 +4°C° 0 mm 1 mps 632 mmHg 39%
    08:00 +6°C° 0 mm 1 mps 632 mmHg 41%
    09:00 +7°C° 0 mm 1 mps 633 mmHg 42%
    10:00 +7°C° 0 mm 1 mps 633 mmHg 43%
    11:00 +7°C° 0 mm 1 mps 633 mmHg 44%
    12:00 +8°C° 0 mm 1 mps 632 mmHg 45%
    13:00 +8°C° 0 mm 1 mps 632 mmHg 49%
    14:00 +8°C° 0 mm 1 mps 632 mmHg 53%
    15:00 +7°C° 0 mm 2 mps 631 mmHg 57%
    16:00 +6°C° 0 mm 2 mps 631 mmHg 66%
    17:00 +4°C° 0 mm 2 mps 630 mmHg 76%
    18:00 +3°C° 0 mm 2 mps 630 mmHg 86%
    19:00 +2°C° 0 mm 2 mps 630 mmHg 87%
    20:00 +2°C° 0 mm 2 mps 630 mmHg 88%
    21:00 +1°C° 0 mm 2 mps 630 mmHg 89%
    22:00 +1°C° 0 mm 2 mps 630 mmHg 88%
    23:00 -1°C° 0 mm 2 mps 630 mmHg 88%

    26 February, Wednesday

    Time Temperature Precipitation Wind Pressure Humidity
    00:00 -1°C° 0 mm 2 mps 629 mmHg 87%
    01:00 -1°C° 0 mm 2 mps 629 mmHg 87%
    02:00 -1°C° 0 mm 2 mps 628 mmHg 86%
    03:00 -1°C° 0 mm 2 mps 628 mmHg 85%
    04:00 -2°C° 0.1 mm 2 mps 628 mmHg 84%
    05:00 -2°C° 0.1 mm 2 mps 628 mmHg 83%
    06:00 -2°C° 0.1 mm 2 mps 627 mmHg 82%
    07:00 -1°C° 0.5 mm 3 mps 628 mmHg 76%
    08:00 -1°C° 0.5 mm 3 mps 629 mmHg 71%
    09:00 -1°C° 0.5 mm 4 mps 630 mmHg 65%
    10:00 -1°C° 0.7 mm 4 mps 630 mmHg 63%
    11:00 -1°C° 0.7 mm 4 mps 630 mmHg 62%
    12:00 0°C° 0.7 mm 4 mps 630 mmHg 60%
    13:00 -1°C° 0.2 mm 4 mps 630 mmHg 60%
    14:00 -1°C° 0.2 mm 4 mps 630 mmHg 59%
    15:00 -1°C° 0.2 mm 4 mps 630 mmHg 59%
    16:00 -3°C° 0.3 mm 4 mps 630 mmHg 65%
    17:00 -4°C° 0.3 mm 3 mps 630 mmHg 72%
    18:00 -5°C° 0.3 mm 3 mps 630 mmHg 79%
    19:00 -5°C° 0.3 mm 3 mps 630 mmHg 80%
    20:00 -6°C° 0.3 mm 3 mps 631 mmHg 81%
    21:00 -6°C° 0.3 mm 3 mps 631 mmHg 82%
    22:00 -5°C° 0.1 mm 2 mps 631 mmHg 82%
    23:00 -5°C° 0.1 mm 2 mps 631 mmHg 82%

    27 February, Thursday

    Time Temperature Precipitation Wind Pressure Humidity
    00:00 -5°C° 0.1 mm 2 mps 631 mmHg 82%
    01:00 -6°C° 0 mm 2 mps 631 mmHg 80%
    02:00 -4°C° 0 mm 1 mps 631 mmHg 77%
    03:00 -4°C° 0 mm 1 mps 631 mmHg 74%
    04:00 -4°C° 0 mm 1 mps 631 mmHg 70%
    05:00 -3°C° 0 mm 1 mps 631 mmHg 65%
    06:00 -3°C° 0 mm 1 mps 632 mmHg 61%
    07:00 -1°C° 0 mm 1 mps 633 mmHg 55%
    08:00 +1°C° 0 mm 1 mps 634 mmHg 49%
    09:00 +3°C° 0 mm 1 mps 635 mmHg 43%
    10:00 +5°C° 0 mm 1 mps 635 mmHg 46%
    11:00 +6°C° 0 mm 1 mps 635 mmHg 48%
    12:00 +7°C° 0 mm 1 mps 636 mmHg 51%
    13:00 +7°C° 0 mm 1 mps 635 mmHg 54%
    14:00 +7°C° 0 mm 1 mps 635 mmHg 56%
    15:00 +7°C° 0 mm 1 mps 635 mmHg 59%
    16:00 +5°C° 0 mm 1 mps 634 mmHg 66%
    17:00 +3°C° 0 mm 1 mps 633 mmHg 73%
    18:00 +1°C° 0 mm 1 mps 632 mmHg 80%
    19:00 +1°C° 0 mm 1 mps 632 mmHg 76%
    20:00 +1°C° 0 mm 1 mps 633 mmHg 72%
    21:00 +1°C° 0 mm 1 mps 633 mmHg 69%
    22:00 +2°C° 0 mm 1 mps 633 mmHg 64%
    23:00 +2°C° 0 mm 1 mps 633 mmHg 60%

    28 February, Friday

    Time Temperature Precipitation Wind Pressure Humidity
    00:00 +2°C° 0 mm 1 mps 633 mmHg 56%
    01:00 +2°C° 0 mm 1 mps 632 mmHg 56%
    02:00 +2°C° 0 mm 1 mps 632 mmHg 57%
    03:00 +2°C° 0 mm 1 mps 631 mmHg 57%
    04:00 +2°C° 0 mm 1 mps 631 mmHg 58%
    05:00 +1°C° 0 mm 1 mps 631 mmHg 59%
    06:00 -1°C° 0 mm 2 mps 630 mmHg 60%
    07:00 +2°C° 0 mm 2 mps 631 mmHg 59%
    08:00 +3°C° 0 mm 2 mps 631 mmHg 58%
    09:00 +5°C° 0 mm 2 mps 631 mmHg 57%
    10:00 +6°C° 0 mm 2 mps 631 mmHg 55%
    11:00 +8°C° 0 mm 3 mps 631 mmHg 53%
    12:00 +9°C° 0 mm 3 mps 631 mmHg 51%
    13:00 +9°C° 0 mm 3 mps 631 mmHg 53%
    14:00 +9°C° 0 mm 3 mps 630 mmHg 54%
    15:00 +9°C° 0 mm 3 mps 629 mmHg 56%
    16:00 +7°C° 0 mm 3 mps 628 mmHg 62%
    17:00 +4°C° 0 mm 3 mps 628 mmHg 68%
    18:00 +3°C° 0 mm 2 mps 627 mmHg 74%
    19:00 +3°C° 0 mm 2 mps 626 mmHg 76%
    20:00 +2°C° 0 mm 2 mps 626 mmHg 77%
    21:00 +2°C° 0 mm 2 mps 626 mmHg 78%
    22:00 +2°C° 0 mm 2 mps 626 mmHg 80%
    23:00 +2°C° 0 mm 2 mps 625 mmHg 81%
    Show more